Date String (YYYY-MM-DD hh:mm:ss) UTC,Instrument flags,Ambient pressure (hPa),Sample flow (lpm),Bypass flow (lpm),Sample temperature (°C),Ambient temperature (°C),ASC tube jacket temperature (°C),LED temperature (°C),Box temperature (°C),Sample RH (%),Span deviation,Mass concentration (μg/m³),Mass concentration (μg/m³),Mass concentration (μg/m³)
DateTimeUTC,F1_M11,P_M11,Q1_M11,Q2_M11,T1_M11,T2_M11,T3_M11,T4_M11,T5_M11,U1_M11,ZSPAN_M11,X0_M11,X2_M11,X1_M11
2022-09-19 16:00:00,,0826.6,5.00,0.00,30.2,27.6,00.0,38.8,31.9,24.2,0000.0,0014.81,0005.96,0005.19
2022-09-19 16:01:00,,0826.6,5.00,0.00,30.2,27.9,00.0,38.8,31.9,24.5,0000.0,0014.56,0005.96,0005.17
2022-09-19 16:02:00,,0826.7,4.99,0.00,30.1,28.1,00.0,38.8,31.9,24.1,0000.0,0014.21,0005.91,0005.17
2022-09-19 16:03:00,,0826.7,5.01,0.00,30.1,28.3,00.0,38.8,31.9,24.1,0000.0,0013.94,0005.88,0005.16
2022-09-19 16:04:00,,0826.6,5.00,0.00,30.2,28.5,00.0,38.8,32.0,24.0,0000.0,0014.78,0005.85,0005.14
2022-09-19 16:05:00,,0826.7,5.01,0.00,30.2,28.7,00.0,38.8,32.0,23.5,0000.0,0015.25,0005.84,0005.11
2022-09-19 16:06:00,,0826.6,5.01,0.00,30.2,28.8,00.0,38.8,32.1,23.7,0000.0,0015.57,0005.82,0005.08
2022-09-19 16:07:00,,0826.7,5.00,0.00,30.2,28.9,00.0,38.9,32.1,25.2,0000.0,0015.43,0005.81,0005.07
2022-09-19 16:08:00,,0826.7,5.01,0.00,30.3,29.0,00.0,38.9,32.1,25.9,0000.0,0015.05,0005.84,0005.09
2022-09-19 16:09:00,,0826.7,4.99,0.00,30.3,29.0,00.0,38.9,32.1,26.5,0000.0,0015.50,0005.89,0005.13
2022-09-19 16:10:00,,0826.7,5.01,0.00,30.3,28.2,00.0,38.9,32.2,26.6,0000.0,0015.40,0005.97,0005.16
2022-09-19 16:11:00,,0826.7,5.00,0.00,30.3,27.1,00.0,38.9,32.0,26.2,0000.0,0015.17,0006.02,0005.20
2022-09-19 16:12:00,,0826.6,5.00,0.00,30.2,27.0,00.0,38.8,32.0,26.0,0000.0,0015.45,0006.07,0005.23
2022-09-19 16:13:00,,0826.7,5.00,0.00,30.2,27.3,00.0,38.8,31.9,26.2,0000.0,0015.57,0006.12,0005.26
2022-09-19 16:14:00,,0826.7,4.99,0.00,30.1,27.5,00.0,38.8,31.8,26.6,-000.1,0015.58,0006.16,0005.30
2022-09-19 16:15:00,,0826.7,4.99,0.00,30.1,27.8,00.0,38.8,31.8,26.4,0000.0,0014.94,0006.22,0005.34
2022-09-19 16:16:00,,0826.7,5.00,0.00,30.1,28.1,00.0,38.8,31.8,26.3,0000.0,0014.48,0006.30,0005.39
2022-09-19 16:17:00,,0826.7,5.00,0.00,30.1,28.3,00.0,38.8,31.9,26.3,0000.0,0014.05,0006.37,0005.44
2022-09-19 16:18:00,,0826.7,5.00,0.00,30.1,28.5,00.0,38.8,31.9,26.6,0000.0,0014.18,0006.44,0005.47
2022-09-19 16:19:00,,0826.7,4.99,0.00,30.1,28.6,00.0,38.8,32.0,26.4,0000.0,0013.99,0006.43,0005.48
2022-09-19 16:20:00,,0826.7,5.01,0.00,30.1,28.7,00.0,38.8,32.0,26.4,0000.0,0013.18,0006.39,0005.48
2022-09-19 16:21:00,,0826.7,4.99,0.00,30.2,28.8,00.0,38.8,32.0,26.4,0000.0,0012.68,0006.39,0005.48
2022-09-19 16:22:00,,0826.7,5.00,0.00,30.2,28.9,00.0,38.8,32.0,26.7,0000.0,0012.68,0006.40,0005.48
2022-09-19 16:23:00,,0826.7,5.01,0.00,30.2,28.5,00.0,38.8,32.1,26.8,0000.0,0012.25,0006.40,0005.50
2022-09-19 16:24:00,,0826.6,4.99,0.00,30.2,27.3,00.0,38.8,32.0,26.6,0000.0,0011.97,0006.44,0005.52
2022-09-19 16:25:00,,0826.7,5.00,0.00,30.1,26.8,00.0,38.8,31.9,26.6,0000.0,0011.97,0006.47,0005.55
2022-09-19 16:26:00,,0826.6,5.00,0.00,30.1,27.0,00.0,38.7,31.8,27.0,0000.0,0012.54,0006.47,0005.58
2022-09-19 16:27:00,,0826.6,5.00,0.00,30.0,27.3,00.0,38.7,31.7,27.3,0000.0,0014.04,0006.50,0005.61
2022-09-19 16:28:00,,0826.6,5.00,0.00,30.0,27.6,00.0,38.7,31.7,28.0,0000.0,0014.45,0006.52,0005.65
2022-09-19 16:29:00,,0826.6,4.99,0.00,30.0,27.9,00.0,38.7,31.7,27.6,0000.0,0014.63,0006.53,0005.67
2022-09-19 16:30:00,,0826.6,5.00,0.00,30.0,28.2,00.0,38.7,31.8,27.1,0000.2,0014.11,0006.52,0005.68
2022-09-19 16:31:00,,0826.5,5.00,0.00,30.0,28.4,00.0,38.7,31.9,26.7,0000.5,0013.90,0006.55,0005.70
2022-09-19 16:32:00,,0826.5,5.00,0.00,30.0,28.6,00.0,38.7,31.9,26.8,0000.2,0014.45,0006.55,0005.70
2022-09-19 16:33:00,,0826.5,4.99,0.00,30.1,28.7,00.0,38.7,31.9,26.3,0000.0,0015.21,0006.61,0005.70
2022-09-19 16:34:00,,0826.6,5.00,0.00,30.1,28.8,00.0,38.7,32.0,26.9,0000.0,0015.59,0006.72,0005.71
2022-09-19 16:35:00,,0826.7,4.98,0.00,30.1,28.9,00.0,38.7,32.0,27.0,0000.0,0015.83,0006.74,0005.71
2022-09-19 16:36:00,,0826.6,5.00,0.00,30.2,28.2,00.0,38.7,32.0,27.0,0000.0,0016.14,0006.73,0005.70
2022-09-19 16:37:00,,0826.5,5.00,0.00,30.1,27.1,00.0,38.7,32.0,26.5,0000.0,0016.23,0006.73,0005.69
2022-09-19 16:38:00,,0826.5,5.00,0.00,30.1,26.9,00.0,38.7,31.9,26.7,0000.0,0014.91,0006.68,0005.66
2022-09-19 16:39:00,,0826.5,5.01,0.00,30.0,27.1,00.0,38.7,31.8,26.6,0000.0,0014.55,0006.70,0005.64
2022-09-19 16:40:00,,0826.5,5.00,0.00,30.0,27.4,00.0,38.6,31.7,26.2,0000.0,0014.63,0006.68,0005.59
2022-09-19 16:41:00,,0826.5,5.00,0.00,30.0,27.7,00.0,38.6,31.7,26.2,0000.0,0014.92,0006.69,0005.57
2022-09-19 16:42:00,,0826.5,5.00,0.00,29.9,28.0,00.0,38.6,31.7,26.4,0000.0,0015.29,0006.72,0005.56
2022-09-19 16:43:00,,0826.5,5.00,0.00,30.0,28.2,00.0,38.6,31.8,26.3,0000.0,0015.28,0006.73,0005.54
2022-09-19 16:44:00,,0826.5,5.01,0.00,30.0,28.4,00.0,38.6,31.8,26.1,0000.0,0014.24,0006.64,0005.51
2022-09-19 16:45:00,,0826.5,5.00,0.00,30.0,28.6,00.0,38.6,31.9,26.0,0000.0,0014.41,0006.57,0005.50
2022-09-19 16:46:00,,0826.5,5.00,0.00,30.0,28.7,00.0,38.6,31.9,26.3,0000.0,0014.44,0006.54,0005.48
2022-09-19 16:47:00,,0826.5,5.00,0.00,30.1,28.8,00.0,38.7,32.0,26.5,0000.0,0014.24,0006.53,0005.47
2022-09-19 16:48:00,,0826.5,4.99,0.00,30.1,28.8,00.0,38.7,32.0,26.1,0000.0,0014.21,0006.51,0005.45
2022-09-19 16:49:00,,0826.5,5.00,0.00,30.1,28.0,00.0,38.7,32.0,25.9,0000.0,0014.58,0006.49,0005.44
2022-09-19 16:50:00,,0826.5,5.01,0.00,30.1,27.0,00.0,38.7,31.8,25.9,0000.0,0015.24,0006.48,0005.44
2022-09-19 16:51:00,,0826.6,5.00,0.00,30.0,26.8,00.0,38.6,31.8,26.5,0000.0,0015.04,0006.51,0005.44
2022-09-19 16:52:00,,0826.6,4.99,0.00,30.0,27.1,00.0,38.6,31.7,26.5,0000.3,0015.67,0006.53,0005.45
2022-09-19 16:53:00,,0826.6,4.99,0.00,29.9,27.4,00.0,38.6,31.6,27.1,0001.5,0016.30,0006.48,0005.44
2022-09-19 16:54:00,,0826.5,4.99,0.00,29.9,27.7,00.0,38.6,31.6,27.0,0001.4,0015.85,0006.43,0005.44
2022-09-19 16:55:00,,0826.5,5.01,0.00,29.9,28.0,00.0,38.6,31.7,26.8,0001.0,0016.49,0006.47,0005.45
2022-09-19 16:56:00,,0826.5,4.99,0.00,29.9,28.2,00.0,38.6,31.7,27.1,0000.9,0016.33,0006.46,0005.46
2022-09-19 16:57:00,,0826.5,5.02,0.00,29.9,28.4,00.0,38.6,31.7,27.3,0000.7,0016.13,0006.45,0005.46
2022-09-19 16:58:00,,0826.5,5.00,0.00,29.9,28.5,00.0,38.6,31.8,27.3,0000.7,0016.41,0006.44,0005.46
2022-09-19 16:59:00,,0826.6,5.00,0.00,30.0,28.7,00.0,38.6,31.9,27.5,0001.0,0016.16,0006.44,0005.45
